| time (UTC) | temp F | wind direction | speed MPH | gust MPH | rain 1hr in | rain 24hr in | rain mn in | humidity % | barometer mb |
| 20260901184206 | 92 | 46 | 2.0 | 5.0 | 0.00 | 0.01 | 0.01 | 62 | 1024.1 |
| 20260901183702 | 92 | 129 | 1.0 | 3.0 | 0.00 | 0.01 | 0.01 | 63 | 1024.2 |
| 20260901183201 | 91 | 84 | 5.0 | 7.0 | 0.00 | 0.01 | 0.01 | 64 | 1024.8 |
| 20260901182657 | 91 | 147 | 1.0 | 2.0 | 0.00 | 0.01 | 0.01 | 64 | 1024.8 |
| 20260901182150 | 89 | 96 | 2.0 | 5.0 | 0.00 | 0.01 | 0.01 | 67 | 1024.6 |
| 20260901181645 | 90 | 353 | 3.0 | 3.0 | 0.00 | 0.01 | 0.01 | 68 | 1024.7 |
| 20260901181140 | 91 | 124 | 0.0 | 3.0 | 0.00 | 0.01 | 0.01 | 65 | 1024.6 |
| 20260901180639 | 91 | 55 | 2.0 | 5.0 | 0.00 | 0.01 | 0.01 | 71 | 1024.7 |
| 20260901180134 | 90 | 152 | 0.0 | 5.0 | 0.00 | 0.01 | 0.01 | 68 | 1024.8 |
| 20260901175633 | 91 | 111 | 1.0 | 3.0 | 0.00 | 0.01 | 0.01 | 68 | 1024.8 |
| 20260901175127 | 91 | 147 | 0.0 | 2.0 | 0.00 | 0.01 | 0.01 | 68 | 1024.8 |
| 20260901174623 | 90 | 50 | 3.0 | 6.0 | 0.00 | 0.01 | 0.01 | 69 | 1024.8 |
| 20260901174119 | 89 | 82 | 2.0 | 3.0 | 0.00 | 0.01 | 0.01 | 70 | 1025.0 |
| 20260901173614 | 92 | 354 | 2.0 | 3.0 | 0.00 | 0.01 | 0.01 | 66 | 1025.0 |
| 20260901173109 | 92 | 130 | 0.0 | 3.0 | 0.00 | 0.01 | 0.01 | 66 | 1025.1 |
| 20260901172604 | 91 | 124 | 1.0 | 5.0 | 0.00 | 0.01 | 0.01 | 70 | 1025.1 |
| 20260901172102 | 89 | 126 | 1.0 | 3.0 | 0.00 | 0.01 | 0.01 | 72 | 1025.1 |
| 20260901171601 | 91 | 215 | 1.0 | 2.0 | 0.00 | 0.01 | 0.01 | 69 | 1025.1 |
| 20260901171056 | 90 | 112 | 0.0 | 2.0 | 0.00 | 0.01 | 0.01 | 66 | 1025.2 |
| 20260901170555 | 90 | 159 | 0.0 | 3.0 | 0.00 | 0.01 | 0.01 | 67 | 1025.1 |
| 20260901170050 | 89 | 98 | 1.0 | 2.0 | 0.00 | 0.01 | 0.01 | 73 | 1025.3 |
| 20260901165550 | 89 | 109 | 1.0 | 3.0 | 0.00 | 0.01 | 0.01 | 73 | 1025.4 |
| 20260901165045 | 90 | 50 | 2.0 | 5.0 | 0.00 | 0.01 | 0.01 | 74 | 1025.5 |
| 20260901164541 | 89 | 135 | 0.0 | 2.0 | 0.00 | 0.01 | 0.01 | 74 | 1025.2 |
| 20260901164036 | 88 | 29 | 3.0 | 6.0 | 0.00 | 0.01 | 0.01 | 76 | 1025.2 |
| 20260901163531 | 89 | 181 | 1.0 | 3.0 | 0.00 | 0.01 | 0.01 | 72 | 1025.4 |
| 20260901163030 | 88 | 99 | 6.0 | 7.0 | 0.00 | 0.01 | 0.01 | 72 | 1025.1 |
| 20260901162531 | 88 | 110 | 0.0 | 2.0 | 0.00 | 0.01 | 0.01 | 73 | 1025.5 |
| 20260901162030 | 87 | 132 | 4.0 | 7.0 | 0.00 | 0.01 | 0.01 | 73 | 1025.5 |
| 20260901161529 | 88 | 55 | 2.0 | 3.0 | 0.00 | 0.01 | 0.01 | 77 | 1025.6 |
| 20260901161029 | 88 | 98 | 4.0 | 8.0 | 0.00 | 0.01 | 0.01 | 73 | 1025.9 |
| 20260901160525 | 89 | 53 | 3.0 | 5.0 | 0.00 | 0.01 | 0.01 | 72 | 1025.7 |
| 20260901160020 | 88 | 108 | 0.0 | 2.0 | 0.00 | 0.01 | 0.01 | 74 | 1025.6 |
| 20260901155514 | 88 | 161 | 0.0 | 3.0 | 0.00 | 0.01 | 0.01 | 74 | 1025.8 |
| 20260901155010 | 87 | 123 | 1.0 | 5.0 | 0.00 | 0.01 | 0.01 | 73 | 1025.9 |
| 20260901154509 | 86 | 102 | 3.0 | 6.0 | 0.00 | 0.01 | 0.01 | 77 | 1025.9 |
| 20260901154004 | 87 | 26 | 1.0 | 3.0 | 0.00 | 0.01 | 0.01 | 75 | 1025.9 |
| 20260901153459 | 87 | 132 | 2.0 | 6.0 | 0.00 | 0.01 | 0.01 | 74 | 1025.8 |
| 20260901152958 | 86 | 60 | 1.0 | 2.0 | 0.00 | 0.01 | 0.01 | 77 | 1025.9 |
| 20260901152453 | 86 | 338 | 5.0 | 7.0 | 0.00 | 0.01 | 0.01 | 75 | 1026.1 |
| 20260901151952 | 87 | 350 | 3.0 | 3.0 | 0.00 | 0.01 | 0.01 | 77 | 1026.1 |
| 20260901151447 | 86 | 161 | 1.0 | 3.0 | 0.00 | 0.01 | 0.01 | 76 | 1026.3 |
| 20260901150946 | 86 | 334 | 2.0 | 5.0 | 0.00 | 0.01 | 0.01 | 79 | 1026.3 |
| 20260901150444 | 86 | 327 | 2.0 | 6.0 | 0.00 | 0.01 | 0.01 | 79 | 1026.2 |
| 20260901145942 | 85 | 339 | 2.0 | 5.0 | 0.00 | 0.01 | 0.01 | 79 | 1026.1 |
| 20260901145437 | 86 | 124 | 0.0 | 2.0 | 0.00 | 0.01 | 0.01 | 77 | 1026.0 |
| 20260901144932 | 85 | 116 | 0.0 | 2.0 | 0.00 | 0.01 | 0.01 | 79 | 1026.1 |
| 20260901144427 | 85 | 349 | 3.0 | 5.0 | 0.00 | 0.01 | 0.01 | 78 | 1026.2 |
| 20260901143923 | 86 | 98 | 1.0 | 2.0 | 0.00 | 0.01 | 0.01 | 79 | 1025.8 |
| 20260901143419 | 85 | 93 | 0.0 | 2.0 | 0.00 | 0.01 | 0.01 | 79 | 1026.0 |
| 20260901142915 | 85 | 135 | 1.0 | 1.0 | 0.00 | 0.01 | 0.01 | 76 | 1025.9 |
| 20260901142415 | 85 | 113 | 0.0 | 3.0 | 0.00 | 0.01 | 0.01 | 80 | 1025.9 |
| 20260901141910 | 86 | 103 | 2.0 | 2.0 | 0.00 | 0.01 | 0.01 | 80 | 1025.9 |
| 20260901141404 | 84 | 160 | 0.0 | 1.0 | 0.00 | 0.01 | 0.01 | 80 | 1026.0 |
| 20260901140904 | 84 | 103 | 1.0 | 2.0 | 0.00 | 0.01 | 0.01 | 82 | 1026.0 |
| 20260901140402 | 84 | 130 | 2.0 | 2.0 | 0.00 | 0.01 | 0.01 | 83 | 1026.0 |
| 20260901135857 | 83 | 124 | 0.0 | 3.0 | 0.00 | 0.01 | 0.01 | 83 | 1025.7 |
| 20260901135351 | 82 | 358 | 2.0 | 3.0 | 0.00 | 0.01 | 0.01 | 84 | 1025.9 |
| 20260901134847 | 82 | 36 | 2.0 | 3.0 | 0.00 | 0.01 | 0.01 | 85 | 1025.9 |
| 20260901134343 | 82 | 68 | 2.0 | 3.0 | 0.00 | 0.01 | 0.01 | 85 | 1026.0 |
| 20260901133837 | 82 | 127 | 0.0 | 1.0 | 0.00 | 0.01 | 0.01 | 87 | 1025.9 |
| 20260901133336 | 81 | 67 | 2.0 | 5.0 | 0.00 | 0.01 | 0.01 | 87 | 1026.2 |
| 20260901132835 | 81 | 103 | 1.0 | 3.0 | 0.00 | 0.01 | 0.01 | 89 | 1025.9 |
| 20260901132329 | 80 | 97 | 2.0 | 3.0 | 0.00 | 0.01 | 0.01 | 89 | 1026.0 |
| 20260901131824 | 80 | 356 | 3.0 | 5.0 | 0.00 | 0.01 | 0.01 | 90 | 1025.7 |
| 20260901131323 | 79 | 95 | 1.0 | 2.0 | 0.00 | 0.01 | 0.01 | 93 | 1025.9 |
| 20260901130818 | 78 | 4 | 3.0 | 3.0 | 0.00 | 0.01 | 0.01 | 95 | 1025.8 |
| 20260901130313 | 78 | 98 | 1.0 | 3.0 | 0.00 | 0.01 | 0.01 | 97 | 1025.8 |
| 20260901125810 | 78 | 90 | 2.0 | 2.0 | 0.00 | 0.01 | 0.01 | 98 | 1025.6 |
| 20260901125308 | 77 | 36 | 3.0 | 5.0 | 0.00 | 0.01 | 0.01 | 99 | 1025.8 |
| 20260901124800 | 76 | 101 | 1.0 | 3.0 | 0.00 | 0.01 | 0.01 | 99 | 1025.8 |
| 20260901124254 | 76 | 98 | 1.0 | 2.0 | 0.00 | 0.01 | 0.01 | 99 | 1025.5 |
| 20260901123748 | 76 | 112 | 1.0 | 1.0 | 0.00 | 0.01 | 0.01 | 99 | 1025.7 |
| 20260901123243 | 76 | 118 | 0.0 | 1.0 | 0.00 | 0.01 | 0.01 | 99 | 1025.5 |
| 20260901122743 | 76 | 121 | 0.0 | 1.0 | 0.00 | 0.01 | 0.01 | 99 | 1025.9 |
| 20260901122237 | 76 | 122 | 0.0 | 1.0 | 0.00 | 0.01 | 0.01 | 99 | 1025.6 |
| 20260901121737 | 75 | 122 | 0.0 | 0.0 | 0.00 | 0.01 | 0.01 | 99 | 1025.6 |
| 20260901121232 | 74 | 111 | 1.0 | 2.0 | 0.00 | 0.01 | 0.01 | 99 | 1025.5 |
| 20260901120732 | 75 | 141 | 0.0 | 0.0 | 0.00 | 0.01 | 0.01 | 99 | 1025.6 |
| 20260901120226 | 74 | 141 | 0.0 | 0.0 | 0.00 | 0.01 | 0.01 | 99 | 1025.5 |
| 20260901115722 | 74 | 141 | 0.0 | 0.0 | 0.00 | 0.01 | 0.01 | 99 | 1025.6 |
| 20260901115218 | 74 | 141 | 0.0 | 0.0 | 0.00 | 0.01 | 0.01 | 99 | 1025.3 |
| 20260901114714 | 73 | 141 | 0.0 | 0.0 | 0.00 | 0.01 | 0.01 | 99 | 1025.2 |
| 20260901114209 | 73 | 140 | 0.0 | 0.0 | 0.00 | 0.01 | 0.01 | 99 | 1025.1 |
| 20260901113708 | 72 | 140 | 0.0 | 0.0 | 0.00 | 0.01 | 0.01 | 99 | 1025.1 |
| 20260901113203 | 71 | 139 | 0.0 | 0.0 | 0.00 | 0.01 | 0.01 | 99 | 1024.8 |
| 20260901112702 | 71 | 139 | 0.0 | 0.0 | 0.00 | 0.01 | 0.01 | 99 | 1025.0 |
| 20260901112156 | 71 | 139 | 0.0 | 0.0 | 0.00 | 0.01 | 0.01 | 99 | 1025.0 |
| 20260901111655 | 71 | 140 | 0.0 | 0.0 | 0.00 | 0.01 | 0.01 | 99 | 1024.8 |
| 20260901111150 | 71 | 141 | 0.0 | 0.0 | 0.00 | 0.01 | 0.01 | 99 | 1024.8 |
| 20260901110645 | 71 | 141 | 0.0 | 0.0 | 0.00 | 0.01 | 0.01 | 99 | 1024.8 |
| 20260901110140 | 71 | 141 | 0.0 | 0.0 | 0.00 | 0.01 | 0.01 | 99 | 1024.6 |
| 20260901105637 | 71 | 141 | 0.0 | 0.0 | 0.07 | 0.01 | 0.01 | 99 | 1024.7 |
| 20260901105136 | 71 | 141 | 0.0 | 0.0 | 0.07 | 0.01 | 0.01 | 99 | 1024.6 |
| 20260901104632 | 71 | 141 | 0.0 | 0.0 | 0.00 | 0.00 | 0.00 | 99 | 1024.6 |
| 20260901104127 | 71 | 141 | 0.0 | 0.0 | 0.00 | 0.00 | 0.00 | 99 | 1024.8 |
| 20260901103626 | 71 | 141 | 0.0 | 0.0 | 0.00 | 0.00 | 0.00 | 99 | 1024.6 |
| 20260901103121 | 71 | 140 | 0.0 | 0.0 | 0.00 | 0.00 | 0.00 | 99 | 1024.4 |
| 20260901102616 | 71 | 140 | 0.0 | 0.0 | 0.00 | 0.00 | 0.00 | 99 | 1024.5 |
| 20260901102111 | 71 | 140 | 0.0 | 0.0 | 0.00 | 0.00 | 0.00 | 99 | 1024.6 |
| 20260901101607 | 71 | 140 | 0.0 | 0.0 | 0.00 | 0.00 | 0.00 | 99 | 1024.5 |
| 20260901101106 | 71 | 140 | 0.0 | 0.0 | 0.00 | 0.00 | 0.00 | 99 | 1024.5 |
| 20260901100606 | 71 | 141 | 0.0 | 0.0 | 0.00 | 0.00 | 0.00 | 99 | 1024.5 |
| 20260901100101 | 71 | 141 | 0.0 | 0.0 | 0.00 | 0.00 | 0.00 | 99 | 1024.3 |
| 20260901095559 | 71 | 141 | 0.0 | 0.0 | 0.00 | 0.00 | 0.00 | 99 | 1024.4 |
| 20260901095056 | 71 | 141 | 0.0 | 0.0 | 0.00 | 0.00 | 0.00 | 99 | 1024.5 |
| 20260901094552 | 71 | 140 | 0.0 | 0.0 | 0.00 | 0.00 | 0.00 | 99 | 1024.4 |
| 20260901094051 | 71 | 140 | 0.0 | 0.0 | 0.00 | 0.00 | 0.00 | 99 | 1024.5 |
| 20260901093546 | 72 | 140 | 0.0 | 0.0 | 0.00 | 0.00 | 0.00 | 99 | 1024.4 |
| 20260901093041 | 72 | 140 | 0.0 | 0.0 | 0.00 | 0.00 | 0.00 | 99 | 1024.3 |
| 20260901092536 | 72 | 140 | 0.0 | 0.0 | 0.00 | 0.00 | 0.00 | 99 | 1024.5 |
| 20260901092032 | 71 | 140 | 0.0 | 0.0 | 0.00 | 0.00 | 0.00 | 99 | 1024.3 |
| 20260901091528 | 71 | 142 | 0.0 | 0.0 | 0.00 | 0.00 | 0.00 | 99 | 1024.4 |
| 20260901091027 | 71 | 142 | 0.0 | 0.0 | 0.00 | 0.00 | 0.00 | 99 | 1024.3 |
| 20260901090522 | 71 | 142 | 0.0 | 0.0 | 0.00 | 0.00 | 0.00 | 99 | 1024.2 |
| 20260901090018 | 71 | 142 | 0.0 | 0.0 | 0.00 | 0.00 | 0.00 | 99 | 1024.2 |
| 20260901085513 | 71 | 142 | 0.0 | 0.0 | 0.00 | 0.00 | 0.00 | 99 | 1024.3 |
| 20260901085009 | 72 | 142 | 0.0 | 0.0 | 0.00 | 0.00 | 0.00 | 99 | 1024.2 |
| 20260901084504 | 72 | 141 | 0.0 | 0.0 | 0.00 | 0.00 | 0.00 | 99 | 1024.3 |
| 20260901084001 | 72 | 140 | 0.0 | 0.0 | 0.00 | 0.00 | 0.00 | 99 | 1024.3 |
| 20260901083501 | 72 | 140 | 0.0 | 0.0 | 0.00 | 0.00 | 0.00 | 99 | 1024.2 |
| 20260901082958 | 72 | 140 | 0.0 | 0.0 | 0.00 | 0.00 | 0.00 | 99 | 1024.3 |
| 20260901082453 | 72 | 140 | 0.0 | 0.0 | 0.00 | 0.00 | 0.00 | 99 | 1024.3 |
| 20260901081943 | 72 | 140 | 0.0 | 0.0 | 0.00 | 0.00 | 0.00 | 99 | 1024.3 |
| 20260901081438 | 72 | 140 | 0.0 | 0.0 | 0.00 | 0.00 | 0.00 | 99 | 1024.2 |
| 20260901080933 | 72 | 140 | 0.0 | 0.0 | 0.00 | 0.00 | 0.00 | 99 | 1024.2 |
| 20260901080433 | 72 | 140 | 0.0 | 0.0 | 0.00 | 0.00 | 0.00 | 99 | 1024.3 |
| 20260901075932 | 72 | 140 | 0.0 | 0.0 | 0.00 | 0.00 | 0.00 | 99 | 1024.2 |
| 20260901075427 | 73 | 140 | 0.0 | 0.0 | 0.00 | 0.00 | 0.00 | 99 | 1024.2 |
| 20260901074921 | 72 | 140 | 0.0 | 0.0 | 0.00 | 0.00 | 0.00 | 99 | 1024.1 |
| 20260901074416 | 72 | 140 | 0.0 | 0.0 | 0.00 | 0.00 | 0.00 | 99 | 1024.2 |
| 20260901073912 | 72 | 140 | 0.0 | 0.0 | 0.00 | 0.00 | 0.00 | 99 | 1024.3 |
| 20260901073408 | 72 | 140 | 0.0 | 0.0 | 0.00 | 0.00 | 0.00 | 99 | 1024.5 |
| 20260901072903 | 72 | 140 | 0.0 | 0.0 | 0.00 | 0.00 | 0.00 | 99 | 1024.4 |
| 20260901072403 | 72 | 140 | 0.0 | 0.0 | 0.00 | 0.00 | 0.00 | 99 | 1024.6 |
| 20260901071858 | 73 | 140 | 0.0 | 0.0 | 0.00 | 0.00 | 0.00 | 99 | 1024.7 |
| 20260901071356 | 73 | 140 | 0.0 | 0.0 | 0.00 | 0.00 | 0.00 | 99 | 1024.6 |
| 20260901070856 | 73 | 140 | 0.0 | 0.0 | 0.00 | 0.00 | 0.00 | 99 | 1024.5 |
| 20260901070352 | 73 | 140 | 0.0 | 0.0 | 0.00 | 0.00 | 0.00 | 99 | 1024.6 |
| 20260901065850 | 73 | 141 | 0.0 | 0.0 | 0.00 | 0.00 | 0.00 | 99 | 1024.5 |
| 20260901065346 | 73 | 141 | 0.0 | 0.0 | 0.00 | 0.00 | 0.00 | 99 | 1024.7 |
| 20260901064841 | 73 | 141 | 0.0 | 0.0 | 0.00 | 0.00 | 0.00 | 99 | 1024.6 |
| 20260901064337 | 73 | 140 | 0.0 | 0.0 | 0.00 | 0.00 | 0.00 | 99 | 1024.9 |
| 20260901063835 | 73 | 140 | 0.0 | 0.0 | 0.00 | 0.00 | 0.00 | 99 | 1024.7 |
| 20260901063331 | 73 | 140 | 0.0 | 0.0 | 0.00 | 0.00 | 0.00 | 99 | 1024.7 |
| 20260901062826 | 73 | 141 | 0.0 | 0.0 | 0.00 | 0.00 | 0.00 | 99 | 1024.7 |
| 20260901062323 | 73 | 140 | 0.0 | 0.0 | 0.00 | 0.00 | 0.00 | 99 | 1025.0 |
| 20260901061818 | 73 | 141 | 0.0 | 0.0 | 0.00 | 0.00 | 0.00 | 99 | 1024.7 |
| 20260901061313 | 73 | 141 | 0.0 | 0.0 | 0.00 | 0.00 | 0.00 | 99 | 1024.8 |
| 20260901060808 | 73 | 141 | 0.0 | 0.0 | 0.00 | 0.00 | 0.00 | 99 | 1024.7 |
| 20260901060304 | 73 | 141 | 0.0 | 0.0 | 0.00 | 0.00 | 0.00 | 99 | 1024.9 |
| 20260901055758 | 74 | 141 | 0.0 | 0.0 | 0.00 | 0.00 | 0.00 | 99 | 1024.8 |
| 20260901055255 | 74 | 140 | 0.0 | 0.0 | 0.00 | 0.00 | 0.00 | 99 | 1024.8 |
| 20260901054751 | 74 | 140 | 0.0 | 0.0 | 0.00 | 0.00 | 0.00 | 98 | 1025.2 |
| 20260901054248 | 74 | 141 | 0.0 | 0.0 | 0.00 | 0.00 | 0.00 | 98 | 1025.0 |
| 20260901053743 | 74 | 141 | 0.0 | 0.0 | 0.00 | 0.00 | 0.00 | 98 | 1024.9 |
| 20260901053238 | 74 | 141 | 0.0 | 0.0 | 0.00 | 0.00 | 0.00 | 98 | 1025.1 |
| 20260901052734 | 74 | 141 | 0.0 | 0.0 | 0.00 | 0.00 | 0.00 | 98 | 1025.3 |
| 20260901052229 | 74 | 141 | 0.0 | 0.0 | 0.00 | 0.00 | 0.00 | 98 | 1025.2 |
| 20260901051728 | 74 | 141 | 0.0 | 0.0 | 0.00 | 0.00 | 0.00 | 98 | 1025.2 |
| 20260901051222 | 74 | 141 | 0.0 | 0.0 | 0.00 | 0.00 | 0.00 | 98 | 1025.2 |
| 20260901050718 | 74 | 141 | 0.0 | 0.0 | 0.00 | 0.00 | 0.00 | 98 | 1025.3 |
| 20260901050213 | 74 | 141 | 0.0 | 0.0 | 0.00 | 0.00 | 0.00 | 98 | 1025.4 |
| 20260901045708 | 74 | 141 | 0.0 | 0.0 | 0.00 | 0.00 | 0.00 | 97 | 1025.2 |
| 20260901045203 | 75 | 141 | 0.0 | 0.0 | 0.00 | 0.00 | 0.00 | 97 | 1025.2 |
| 20260901044658 | 75 | 141 | 0.0 | 0.0 | 0.00 | 0.00 | 0.00 | 97 | 1025.1 |
| 20260901044154 | 75 | 141 | 0.0 | 0.0 | 0.00 | 0.00 | 0.00 | 97 | 1025.3 |
| 20260901043650 | 75 | 141 | 0.0 | 0.0 | 0.00 | 0.00 | 0.00 | 97 | 1025.3 |
| 20260901043145 | 75 | 141 | 0.0 | 0.0 | 0.00 | 0.00 | 0.00 | 97 | 1025.2 |
| 20260901042644 | 75 | 141 | 0.0 | 1.0 | 0.00 | 0.00 | 0.00 | 97 | 1025.2 |
| 20260901042139 | 75 | 142 | 0.0 | 0.0 | 0.00 | 0.00 | 0.00 | 97 | 1025.1 |
| 20260901041635 | 75 | 142 | 0.0 | 0.0 | 0.00 | 0.00 | 0.00 | 97 | 1025.4 |
| 20260901041130 | 75 | 142 | 0.0 | 0.0 | 0.00 | 0.00 | 0.00 | 97 | 1025.1 |
| 20260901040630 | 75 | 142 | 0.0 | 0.0 | 0.00 | 0.00 | 0.00 | 96 | 1025.1 |
| 20260901040129 | 75 | 142 | 0.0 | 0.0 | 0.00 | 0.00 | 0.00 | 96 | 1025.0 |
| 20260901035627 | 75 | 142 | 0.0 | 0.0 | 0.00 | 0.02 | 0.02 | 96 | 1025.2 |
| 20260901035126 | 75 | 142 | 0.0 | 0.0 | 0.00 | 0.02 | 0.02 | 96 | 1025.1 |
| 20260901034621 | 75 | 142 | 0.0 | 1.0 | 0.00 | 0.02 | 0.02 | 96 | 1025.3 |
| 20260901034115 | 75 | 141 | 0.0 | 0.0 | 0.00 | 0.02 | 0.02 | 96 | 1025.0 |
| 20260901033614 | 76 | 140 | 0.0 | 0.0 | 0.00 | 0.02 | 0.02 | 96 | 1025.2 |
| 20260901033109 | 76 | 140 | 0.0 | 0.0 | 0.00 | 0.02 | 0.02 | 95 | 1025.3 |
| 20260901032608 | 76 | 140 | 0.0 | 0.0 | 0.00 | 0.02 | 0.02 | 95 | 1025.3 |
| 20260901032103 | 76 | 140 | 0.0 | 0.0 | 0.00 | 0.02 | 0.02 | 95 | 1025.2 |
| 20260901031558 | 76 | 140 | 0.0 | 0.0 | 0.00 | 0.02 | 0.02 | 94 | 1025.4 |
| 20260901031054 | 77 | 140 | 0.0 | 0.0 | 0.00 | 0.02 | 0.02 | 94 | 1025.4 |
| 20260901030554 | 77 | 137 | 0.0 | 1.0 | 0.00 | 0.02 | 0.02 | 93 | 1025.4 |
| 20260901030048 | 77 | 137 | 1.0 | 1.0 | 0.00 | 0.02 | 0.02 | 92 | 1025.2 |
| 20260901025542 | 77 | 138 | 0.0 | 1.0 | 0.00 | 0.02 | 0.02 | 92 | 1025.3 |
| 20260901025037 | 77 | 136 | 1.0 | 1.0 | 0.00 | 0.02 | 0.02 | 92 | 1025.5 |
| 20260901024532 | 77 | 153 | 0.0 | 1.0 | 0.00 | 0.02 | 0.02 | 92 | 1025.4 |
| 20260901024030 | 77 | 144 | 1.0 | 2.0 | 0.00 | 0.02 | 0.02 | 92 | 1025.5 |
| 20260901023524 | 77 | 163 | 2.0 | 2.0 | 0.00 | 0.02 | 0.02 | 92 | 1025.5 |
| 20260901023020 | 78 | 152 | 0.0 | 2.0 | 0.00 | 0.02 | 0.02 | 92 | 1025.3 |
| 20260901022515 | 78 | 156 | 1.0 | 3.0 | 0.00 | 0.02 | 0.02 | 91 | 1025.4 |
| 20260901022010 | 78 | 151 | 1.0 | 2.0 | 0.00 | 0.02 | 0.02 | 91 | 1025.3 |
| 20260901021506 | 78 | 138 | 2.0 | 5.0 | 0.00 | 0.02 | 0.02 | 90 | 1025.1 |
| 20260901021001 | 78 | 158 | 2.0 | 3.0 | 0.00 | 0.02 | 0.02 | 90 | 1025.3 |
| 20260901020456 | 78 | 163 | 3.0 | 3.0 | 0.00 | 0.02 | 0.02 | 91 | 1025.2 |
| 20260901015955 | 78 | 151 | 2.0 | 6.0 | 0.00 | 0.02 | 0.02 | 91 | 1025.1 |
| 20260901015452 | 78 | 186 | 4.0 | 6.0 | 0.00 | 0.02 | 0.02 | 92 | 1024.9 |
| 20260901014951 | 78 | 142 | 3.0 | 3.0 | 0.00 | 0.02 | 0.02 | 93 | 1025.0 |
| 20260901014447 | 79 | 158 | 2.0 | 2.0 | 0.00 | 0.02 | 0.02 | 92 | 1025.0 |
| 20260901013942 | 79 | 170 | 3.0 | 5.0 | 0.00 | 0.02 | 0.02 | 92 | 1024.7 |
| 20260901013438 | 79 | 165 | 2.0 | 3.0 | 0.00 | 0.02 | 0.02 | 93 | 1024.7 |
| 20260901012933 | 79 | 155 | 2.0 | 2.0 | 0.00 | 0.02 | 0.02 | 92 | 1024.8 |
| 20260901012428 | 79 | 157 | 1.0 | 2.0 | 0.00 | 0.02 | 0.02 | 92 | 1024.7 |
| 20260901011923 | 79 | 146 | 2.0 | 3.0 | 0.00 | 0.02 | 0.02 | 91 | 1024.5 |
| 20260901011420 | 80 | 157 | 1.0 | 2.0 | 0.00 | 0.02 | 0.02 | 91 | 1024.4 |
| 20260901010917 | 80 | 154 | 2.0 | 5.0 | 0.00 | 0.02 | 0.02 | 91 | 1024.5 |
| 20260901010413 | 79 | 155 | 4.0 | 6.0 | 0.00 | 0.02 | 0.02 | 92 | 1024.3 |
| 20260901005911 | 78 | 160 | 7.0 | 8.0 | 0.00 | 0.02 | 0.02 | 96 | 1024.3 |
| 20260901005407 | 78 | 125 | 0.0 | 0.0 | 0.00 | 0.02 | 0.02 | 98 | 1024.0 |
| 20260901004902 | 79 | 125 | 0.0 | 0.0 | 0.00 | 0.02 | 0.02 | 98 | 1024.1 |
| 20260901004401 | 79 | 125 | 0.0 | 0.0 | 0.00 | 0.02 | 0.02 | 97 | 1024.0 |
| 20260901003856 | 79 | 125 | 0.0 | 0.0 | 0.00 | 0.02 | 0.02 | 97 | 1024.2 |
| 20260901003351 | 79 | 125 | 0.0 | 0.0 | 0.00 | 0.02 | 0.02 | 97 | 1023.9 |
| 20260901002849 | 79 | 125 | 0.0 | 0.0 | 0.00 | 0.02 | 0.02 | 97 | 1024.1 |
| 20260901002349 | 79 | 125 | 0.0 | 0.0 | 0.00 | 0.02 | 0.02 | 96 | 1023.9 |
| 20260901001844 | 79 | 125 | 0.0 | 0.0 | 0.00 | 0.02 | 0.02 | 96 | 1023.8 |
| 20260901001339 | 80 | 125 | 0.0 | 0.0 | 0.00 | 0.02 | 0.02 | 96 | 1023.9 |
| 20260901000835 | 80 | 125 | 0.0 | 0.0 | 0.00 | 0.02 | 0.02 | 96 | 1023.9 |
| 20260901000330 | 80 | 125 | 0.0 | 0.0 | 0.00 | 0.02 | 0.02 | 95 | 1023.7 |
| 20260831235828 | 81 | 125 | 0.0 | 0.0 | 0.00 | 0.02 | 0.02 | 95 | 1023.6 |
| 20260831235324 | 81 | 125 | 0.0 | 1.0 | 0.00 | 0.02 | 0.02 | 95 | 1023.7 |
| 20260831234824 | 81 | 125 | 0.0 | 0.0 | 0.00 | 0.02 | 0.02 | 94 | 1023.5 |
| 20260831234319 | 82 | 125 | 0.0 | 1.0 | 0.00 | 0.02 | 0.02 | 93 | 1023.7 |
| 20260831233814 | 83 | 124 | 0.0 | 1.0 | 0.00 | 0.02 | 0.02 | 92 | 1023.6 |
| 20260831233310 | 82 | 127 | 0.0 | 0.0 | 0.00 | 0.02 | 0.02 | 91 | 1023.4 |
| 20260831232805 | 83 | 126 | 0.0 | 1.0 | 0.00 | 0.02 | 0.02 | 90 | 1023.6 |
| 20260831232305 | 83 | 126 | 0.0 | 2.0 | 0.00 | 0.02 | 0.02 | 90 | 1023.7 |
| 20260831231756 | 84 | 138 | 0.0 | 1.0 | 0.00 | 0.02 | 0.02 | 91 | 1023.6 |
| 20260831231253 | 84 | 129 | 1.0 | 1.0 | 0.00 | 0.02 | 0.02 | 89 | 1023.7 |
| 20260831230748 | 83 | 138 | 1.0 | 2.0 | 0.00 | 0.02 | 0.02 | 89 | 1023.7 |
| 20260831230243 | 83 | 152 | 0.0 | 1.0 | 0.00 | 0.02 | 0.02 | 90 | 1023.8 |
| 20260831225742 | 84 | 152 | 0.0 | 1.0 | 0.00 | 0.02 | 0.02 | 92 | 1023.5 |
| 20260831225237 | 84 | 153 | 1.0 | 1.0 | 0.00 | 0.02 | 0.02 | 93 | 1023.6 |
| 20260831224732 | 84 | 151 | 0.0 | 1.0 | 0.00 | 0.02 | 0.02 | 92 | 1023.6 |
| 20260831224228 | 84 | 151 | 0.0 | 1.0 | 0.00 | 0.02 | 0.02 | 91 | 1023.7 |
| 20260831223723 | 83 | 151 | 0.0 | 1.0 | 0.00 | 0.02 | 0.02 | 90 | 1023.7 |
| 20260831223219 | 83 | 151 | 0.0 | 0.0 | 0.00 | 0.02 | 0.02 | 93 | 1023.5 |
| 20260831222715 | 81 | 150 | 0.0 | 0.0 | 0.00 | 0.02 | 0.02 | 93 | 1023.6 |
| 20260831222211 | 81 | 151 | 0.0 | 0.0 | 0.00 | 0.02 | 0.02 | 93 | 1023.6 |
| 20260831221706 | 81 | 150 | 0.0 | 0.0 | 0.00 | 0.02 | 0.02 | 93 | 1023.4 |
| 20260831221201 | 80 | 146 | 0.0 | 1.0 | 0.00 | 0.02 | 0.02 | 92 | 1023.4 |
| 20260831220656 | 81 | 98 | 2.0 | 2.0 | 0.00 | 0.02 | 0.02 | 91 | 1023.5 |
| 20260831220151 | 80 | 105 | 5.0 | 7.0 | 0.12 | 0.02 | 0.02 | 85 | 1023.8 |
| 20260831215646 | 83 | 153 | 5.0 | 9.0 | 0.07 | 0.01 | 0.01 | 86 | 1023.6 |
| 20260831215142 | 86 | 66 | 6.0 | 9.0 | 0.00 | 0.00 | 0.00 | 77 | 1023.7 |
| 20260831214639 | 87 | 153 | 5.0 | 7.0 | 0.00 | 0.00 | 0.00 | 75 | 1023.8 |
| 20260831214135 | 88 | 143 | 4.0 | 6.0 | 0.00 | 0.00 | 0.00 | 74 | 1023.8 |
| 20260831213632 | 89 | 190 | 9.0 | 10.0 | 0.00 | 0.00 | 0.00 | 71 | 1023.7 |
| 20260831213126 | 92 | 128 | 4.0 | 6.0 | 0.00 | 0.00 | 0.00 | 64 | 1023.5 |
| 20260831212622 | 93 | 173 | 1.0 | 2.0 | 0.00 | 0.00 | 0.00 | 62 | 1023.3 |
| 20260831212119 | 92 | 108 | 2.0 | 3.0 | 0.00 | 0.00 | 0.00 | 66 | 1023.4 |
| 20260831211613 | 91 | 81 | 1.0 | 2.0 | 0.00 | 0.00 | 0.00 | 66 | 1023.3 |
| 20260831211112 | 91 | 153 | 2.0 | 5.0 | 0.00 | 0.00 | 0.00 | 68 | 1023.4 |
| 20260831210607 | 90 | 126 | 1.0 | 2.0 | 0.00 | 0.00 | 0.00 | 66 | 1023.5 |
| 20260831210103 | 90 | 124 | 1.0 | 2.0 | 0.00 | 0.00 | 0.00 | 67 | 1023.5 |
| 20260831205602 | 90 | 76 | 3.0 | 3.0 | 0.00 | 0.00 | 0.00 | 67 | 1023.3 |
| 20260831205059 | 93 | 102 | 1.0 | 5.0 | 0.00 | 0.00 | 0.00 | 66 | 1023.4 |
| 20260831204553 | 92 | 134 | 0.0 | 1.0 | 0.00 | 0.00 | 0.00 | 65 | 1023.4 |
| 20260831204052 | 90 | 115 | 0.0 | 1.0 | 0.00 | 0.00 | 0.00 | 66 | 1023.3 |
| 20260831203546 | 88 | 109 | 0.0 | 1.0 | 0.00 | 0.00 | 0.00 | 71 | 1023.7 |
| 20260831203045 | 88 | 88 | 0.0 | 2.0 | 0.00 | 0.00 | 0.00 | 69 | 1023.6 |
| 20260831202544 | 89 | 78 | 1.0 | 2.0 | 0.00 | 0.00 | 0.00 | 70 | 1023.5 |
| 20260831202039 | 92 | 137 | 1.0 | 2.0 | 0.00 | 0.00 | 0.00 | 62 | 1023.8 |
| 20260831201537 | 92 | 115 | 4.0 | 6.0 | 0.00 | 0.00 | 0.00 | 63 | 1023.6 |
| 20260831201033 | 93 | 106 | 1.0 | 2.0 | 0.00 | 0.00 | 0.00 | 63 | 1023.8 |
| 20260831200523 | 90 | 135 | 0.0 | 2.0 | 0.00 | 0.00 | 0.00 | 67 | 1023.8 |
| 20260831200018 | 90 | 98 | 3.0 | 5.0 | 0.00 | 0.00 | 0.00 | 68 | 1023.8 |
| 20260831195514 | 91 | 12 | 4.0 | 8.0 | 0.00 | 0.00 | 0.00 | 67 | 1023.9 |
| 20260831195013 | 91 | 70 | 1.0 | 2.0 | 0.00 | 0.00 | 0.00 | 65 | 1023.9 |
| 20260831194508 | 91 | 129 | 1.0 | 1.0 | 0.00 | 0.00 | 0.00 | 66 | 1023.6 |
| 20260831194003 | 91 | 88 | 2.0 | 3.0 | 0.00 | 0.00 | 0.00 | 67 | 1023.7 |
| 20260831193458 | 91 | 114 | 1.0 | 3.0 | 0.00 | 0.00 | 0.00 | 69 | 1024.0 |
| 20260831192953 | 92 | 64 | 4.0 | 6.0 | 0.00 | 0.00 | 0.00 | 66 | 1024.2 |
| 20260831192448 | 91 | 127 | 1.0 | 3.0 | 0.00 | 0.00 | 0.00 | 65 | 1024.5 |
| 20260831191943 | 91 | 58 | 2.0 | 3.0 | 0.00 | 0.00 | 0.00 | 64 | 1024.4 |
| 20260831191439 | 89 | 131 | 1.0 | 2.0 | 0.00 | 0.00 | 0.00 | 70 | 1024.3 |
| 20260831190935 | 90 | 94 | 3.0 | 6.0 | 0.00 | 0.00 | 0.00 | 69 | 1024.4 |
| 20260831190430 | 90 | 71 | 1.0 | 2.0 | 0.00 | 0.00 | 0.00 | 65 | 1024.8 |
| 20260831185929 | 90 | 74 | 3.0 | 5.0 | 0.00 | 0.00 | 0.00 | 66 | 1024.6 |
| 20260831185425 | 90 | 96 | 1.0 | 2.0 | 0.00 | 0.00 | 0.00 | 65 | 1024.7 |
| 20260831184924 | 90 | 82 | 1.0 | 3.0 | 0.00 | 0.00 | 0.00 | 66 | 1024.8 |